Regional Weather Roundup
Issued by NWS

Home | Current Version | Previous Version | Text Only | Print | Product List | Glossary On
Versions: 1 2 3 4 5 6 7 8 9 10 11 12 13 14 15 16 17 18 19 20 21 22 23 24 25 26 27 28 29
000
ASUS44 KLIX 252111
RWRLA
LOUISIANA WEATHER ROUNDUP
NATIONAL WEATHER SERVICE NEW ORLEANS LA
400 PM CDT MON JUL 25 2016

NOTE: "FAIR" INDICATES FEW OR NO CLOUDS BELOW 12,000 FEET WITH NO
      SIGNIFICANT WEATHER AND/OR OBSTRUCTIONS TO VISIBILITY.
      SKY/WX - SKY CONDITION AND SIGNIFICANT WEATHER.
      TMP - AIR TEMPERATURE.    DP   - DEWPOINT TEMPERATURE.
      RH  - RELATIVE HUMIDITY.  PRES - PRESSURE.
      HX  - HEAT INDEX.         WCI  - WIND CHILL INDEX.

*  THESE STATIONS ARE NOT NWS OR FAA STATIONS AND ARE NOT UNDER
   NWS QUALITY CONTROL.

LAZ040-048-061>063-065-066-069-252200-
SOUTHEAST LOUISIANA

CITY           SKY/WX    TMP DP  RH WIND       PRES   REMARKS
N.O. AUDUBON   NOT AVBL
N.O. INTL ARPT CLOUDY    85  75  72 E7        29.91F
N.O. LAKEFRONT PTSUNNY   89  74  60 E13       29.91F HX  98
N.O. DOWNTOWN* LGT RAIN  85  79  82 VRB6      29.92F HX  98
RESERVE*       TSTM      81  74  79 SE20G29   29.92R
SLIDELL        MOSUNNY   91  74  57 E10G20    29.91F HX 100
BATON ROUGE    TSTM      80  75  84 NE8       29.90F
BOOTHVILLE     RAIN      83  76  79 E5        29.92F
BELLE CHASSE   PTSUNNY   84  80  88 SE3       29.92R HX  97
BOGALUSA*      MOCLDY    89  76  65 E10       29.93S HX 100
GALLIANO*      CLEAR     91  76  62 S5        29.91S HX 103
NEW ROADS*     MOCLDY    85  77  75 N7        29.89S HX  96
GONZALES*      FAIR      87  76  69 NE5       29.88F HX  98
HAMMOND*       CLOUDY    77  73  88 CALM      29.92F
HOUMA*         NOT AVBL
PORT FOURCHON* CLEAR     86  77  74 SE12      29.92R HX  97

$$

LAZ041-044-053-054-252200-
SOUTHWEST LOUISIANA

CITY           SKY/WX    TMP DP  RH WIND       PRES   REMARKS
LAKE CHARLES   LGT RAIN  78  76  93 VRB3      29.92S
LAFAYETTE      PTSUNNY   91  74  57 E5        29.88F HX 100
PATTERSON      TSTM      80  78  94 S13G18    29.91R
SALT POINT     NOT AVBL
NEW IBERIA     LGT RAIN  80  75  84 SW15      29.89S
CHENAULT AIRPK MOSUNNY   77  75  94 VRB5      29.92F

$$

LAZ027-028-252200-
CENTRAL LOUISIANA

CITY           SKY/WX    TMP DP  RH WIND       PRES   REMARKS
FORT POLK      MOSUNNY   90  78  69 SW14      29.88F HX 104
ALEXANDRIA INT CLOUDY    83  76  79 CALM      29.87F
ALEXANDRIA     MOSUNNY   93  75  55 E6        29.88F HX 104

$$

LAZ001-002-252200-
NORTHWEST LOUISIANA

CITY           SKY/WX    TMP DP  RH WIND       PRES   REMARKS
SHREVEPORT     MOSUNNY   96  74  48 NE10      29.89F HX 107
BARKSDALE AFB  MOSUNNY   94  72  48 VRB5      29.89F HX 102
DTN SHREVEPORT PTSUNNY   94  73  50 E5        29.89F HX 103

$$

LAZ014-016-252200-
NORTHEAST LOUISIANA

CITY           SKY/WX    TMP DP  RH WIND       PRES   REMARKS
MONROE         PTSUNNY   90  75  61 VRB6      29.92F HX 100
TALLULAH       SUNNY     96  73  47 E9        29.91F HX 105

$$





USA.gov is the U.S. government's official web portal to all federal, state and local government web resources and services.